Location: Ar Ranvel
(48.3000°N, 4.8833°W)
Time: 21:39:12
(UTC+00:00)

Meteor 2-10 Rocket - Pass Details

Date: 03 November 2021
Orbit: 733 x 885 km, 81.2° (Epoch: 30 November)

Event Time Altitude Azimuth Distance (km) Brightness Sun altitude
Rises 03:42:11 0° 354° (N) 3,178 6.8 -34.4°
Enters shadow 03:42:45 - 355° (N) 2,963 6.7 -34.3°
Exits shadow 03:48:49 36° 56° (NE) 1,158 4.8 -33.4°
Maximum altitude 03:49:20 37° 70° (ENE) 1,137 4.7 -33.3°
Drops below altitude 10° 03:54:00 10° 138° (SE) 2,255 6.2 -32.5°
Sets 03:56:30 0° 147° (SSE) 3,189 6.9 -32.1°
